CZ-6A DEB, 54451

Orbit data source: Space-Track

CZ-6A DEB, 54451 is space debris in SSO originally from a launch on Fri, 11 Nov 2022 UTC launched from the Taiyaun Space Center, China (TSC). Debris objects in space refer to the collection of defunct objects orbiting the Earth. Examples of debris include non-operational satellites, rocket bodies, and fragments generated from explosions, collisions, or faulty payload assembly.

Loading next visibility...
Identifier
54451, 2022-151GB
Orbit
SSO
Country
Flag of CNCN / PRC
Related business
Manufacturer
SAST
Mission
Spacecraft
Bus & Motor
Unknown
Mass
Unknown
Launch date (UTC)
2022-11-11 (3 years ago)
Launch vehicle
Unknown
Launch site
Taiyaun Space Center, China (TSC)
Object type
Payload
Rocket body
Debris
Shape & HBR
Unknown shape, 0.1 m
Radar Cross Section
Small (<0.1 m²)

Expand to show TLE details & history
Last TLE update: 9 hours ago

TLE from 9 hours ago
0 CZ-6A DEB
1 54451U 22151GB  25354.11810742  .00002389  00000-0  86618-3 0  9997
2 54451  98.9263  44.7657 0073059 291.6945  67.6470 14.32867567161536
Epoch: 2025-12-20T02:50Z
TLE epoch observation values (Epoch: 2025-12-20T02:50:04.481Z)
Latitude
-0.00003°
Longitude
-86.70247°
Altitude
765.516 km
Speed
7.482 km/s
True Right ascension
02h 59m 03s
True Declination
0° 00' 00"
Sunlit
Object was in full shadow at epoch
Visualization orbit readout
Latitude
Unknown
Longitude
Unknown
Altitude
Unknown
Speed
Unknown
Apparent Right ascension
Unknown
Apparent Declination
Unknown
Sunlit
N/A
Visualization observer readout
Local Sidereal Time
10:23:10
Azimuth
Unknown
Elevation
Unknown
Doppler factor
Unknown
Orbital elements
Apogee altitude
831.605 km
Perigee altitude
727.022 km
Semi-major axis
7,157.45 km
Eccentricity
0.00731
Inclination
98.9263°
RAAN
44.7657°
Arg. of periapsis
291.6945°
True anomaly
68.42396°
Mean anomaly
67.647°
Eccentric anomaly
68.03521°
Mean motion
3.58431 °/min
Orbital period
100.44 mins
BSTAR
0.00086618
Loading maneuver chart data...
Computing Atmospheric mass density...
Loading historical data...
Loading historical data...
Loading historical data...
Loading historical data...
Loading historical data...
Loading historical data...
Loading historical data...

Documentation

Showing up to 5 results
|